Time,TemperatureF,DewpointF,PressureIn,WindDirection,WindDirectionDegrees,WindSpeedMPH,WindSpeedGustMPH,Humidity,HourlyPrecipIn,Conditions,Clouds,dailyrainin,SolarRadiationWatts/m^2,SoftwareType,DateUTC
2013-01-30 13:55:00,57.1,57.1,29.69,WSW,251,2.0,4.0,100,0.11,,,1.26,7,Wunderground v.1.15,2013-01-30 18:55:00,
2013-01-30 14:15:00,57.1,57.1,29.67,West,280,2.0,2.0,100,0.00,,,1.26,11,Wunderground v.1.15,2013-01-30 19:15:00,
2013-01-30 14:20:00,57.1,57.1,29.66,NW,313,1.0,2.0,100,0.00,,,1.27,9,Wunderground v.1.15,2013-01-30 19:20:00,
2013-01-30 14:30:00,57.2,57.2,29.66,WNW,289,2.0,2.0,100,0.00,,,1.27,9,Wunderground v.1.15,2013-01-30 19:30:00,
2013-01-30 14:35:00,57.2,57.2,29.65,SSE,151,2.0,4.0,100,0.00,,,1.28,12,Wunderground v.1.15,2013-01-30 19:35:00,
2013-01-30 14:40:00,57.2,57.2,29.66,SW,232,3.0,6.0,100,0.00,,,1.28,9,Wunderground v.1.15,2013-01-30 19:40:00,
2013-01-30 14:45:00,57.3,57.3,29.65,WSW,254,3.0,3.0,100,0.00,,,1.28,7,Wunderground v.1.15,2013-01-30 19:45:00,
2013-01-30 14:50:00,57.3,57.3,29.65,SSW,200,3.0,3.0,100,0.00,,,1.28,5,Wunderground v.1.15,2013-01-30 19:50:00,
2013-01-30 14:55:00,57.3,57.3,29.65,SSE,165,3.0,3.0,100,0.00,,,1.28,7,Wunderground v.1.15,2013-01-30 19:55:00,
2013-01-30 15:00:00,57.3,57.3,29.65,South,182,3.0,3.0,100,0.00,,,1.28,5,Wunderground v.1.15,2013-01-30 20:00:00,
2013-01-30 15:10:00,57.4,57.4,29.64,SSE,163,3.0,6.0,100,0.00,,,1.28,5,Wunderground v.1.15,2013-01-30 20:10:00,
2013-01-30 15:15:00,57.4,57.4,29.65,SW,236,3.0,6.0,100,0.00,,,1.29,5,Wunderground v.1.15,2013-01-30 20:15:00,
2013-01-30 15:20:00,57.5,57.5,29.63,SSW,194,3.0,3.0,100,0.00,,,1.29,0,Wunderground v.1.15,2013-01-30 20:20:00,
2013-01-30 15:30:00,57.5,57.5,29.63,North,11,3.0,3.0,100,0.04,,,1.30,0,Wunderground v.1.15,2013-01-30 20:30:00,
2013-01-30 15:35:00,57.5,57.5,29.63,WNW,284,3.0,3.0,100,0.17,,,1.31,7,Wunderground v.1.15,2013-01-30 20:35:00,
2013-01-30 15:40:00,57.5,57.5,29.64,WSW,246,4.0,4.0,100,0.39,,,1.33,0,Wunderground v.1.15,2013-01-30 20:40:00,
2013-01-30 15:50:00,57.5,57.5,29.63,ESE,103,3.0,4.0,100,0.06,,,1.34,0,Wunderground v.1.15,2013-01-30 20:50:00,
2013-01-30 16:00:00,57.6,57.6,29.63,ESE,107,3.0,3.0,100,0.32,,,1.37,0,Wunderground v.1.15,2013-01-30 21:00:00,
2013-01-30 16:10:00,57.6,57.6,29.62,South,181,3.0,3.0,100,0.09,,,1.39,0,Wunderground v.1.15,2013-01-30 21:10:00,
2013-01-30 16:20:00,57.6,57.6,29.62,NNE,13,4.0,4.0,100,0.24,,,1.44,0,Wunderground v.1.15,2013-01-30 21:20:00,
2013-01-30 16:30:00,57.6,57.6,29.61,West,273,3.0,3.0,100,0.56,,,1.51,0,Wunderground v.1.15,2013-01-30 21:30:00,
2013-01-30 16:35:00,57.6,57.6,29.61,East,84,3.0,3.0,100,0.22,,,1.53,0,Wunderground v.1.15,2013-01-30 21:35:00,
2013-01-30 16:40:00,57.6,57.6,29.61,WNW,290,3.0,3.0,100,0.26,,,1.55,0,Wunderground v.1.15,2013-01-30 21:40:00,
2013-01-30 16:50:00,57.6,57.6,29.59,NW,321,3.0,3.0,100,0.51,,,1.61,0,Wunderground v.1.15,2013-01-30 21:50:00,
2013-01-30 20:50:00,47.1,46.8,29.49,NW,308,10.0,12.0,99,0.16,,,2.95,0,Wunderground v.1.15,2013-01-31 01:50:00,
2013-01-30 21:00:00,46.2,45.7,29.49,WNW,303,11.0,16.0,98,0.06,,,2.96,0,Wunderground v.1.15,2013-01-31 02:00:00,
2013-01-30 21:10:00,45.6,44.8,29.49,NNW,329,14.0,14.0,97,0.00,,,2.96,0,Wunderground v.1.15,2013-01-31 02:10:00,
2013-01-30 21:20:00,45.1,43.8,29.52,NNW,334,12.0,15.0,95,0.20,,,2.99,0,Wunderground v.1.15,2013-01-31 02:20:00,
2013-01-30 21:30:00,45.0,43.4,29.54,NW,317,14.0,14.0,94,0.09,,,3.00,0,Wunderground v.1.15,2013-01-31 02:30:00,
2013-01-30 21:35:00,44.9,43.0,29.53,WNW,289,13.0,14.0,93,0.09,,,3.01,0,Wunderground v.1.15,2013-01-31 02:35:00,
2013-01-30 21:45:00,45.0,43.1,29.52,WNW,286,14.0,16.0,93,0.13,,,3.03,0,Wunderground v.1.15,2013-01-31 02:45:00,
2013-01-30 21:50:00,45.0,42.8,29.52,NNW,330,14.0,14.0,92,0.06,,,3.03,0,Wunderground v.1.15,2013-01-31 02:50:00,
2013-01-30 21:55:00,45.0,42.8,29.50,NNW,338,14.0,21.0,92,0.04,,,3.03,0,Wunderground v.1.15,2013-01-31 02:55:00,
2013-01-30 22:00:00,44.7,42.2,29.51,NW,318,14.0,21.0,91,0.04,,,3.04,0,Wunderground v.1.15,2013-01-31 03:00:00,
2013-01-30 22:10:00,44.5,42.0,29.51,North,355,12.0,12.0,91,0.04,,,3.04,0,Wunderground v.1.15,2013-01-31 03:10:00,
2013-01-30 22:20:00,44.3,41.6,29.53,NNW,331,10.0,13.0,90,0.00,,,3.05,0,Wunderground v.1.15,2013-01-31 03:20:00,
2013-01-30 22:30:00,44.0,41.5,29.52,NW,324,9.0,13.0,91,0.13,,,3.07,0,Wunderground v.1.15,2013-01-31 03:30:00,
2013-01-30 22:39:00,43.7,41.2,29.52,West,262,8.0,8.0,91,0.08,,,3.08,0,Wunderground v.1.15,2013-01-31 03:39:00,
2013-01-30 22:45:00,44.2,41.5,29.50,WNW,288,8.0,8.0,90,0.05,,,3.08,0,Wunderground v.1.15,2013-01-31 03:45:00,
2013-01-30 22:50:00,44.5,41.5,29.51,North,360,7.0,8.0,89,0.00,,,3.08,0,Wunderground v.1.15,2013-01-31 03:50:00,
2013-01-30 23:00:00,44.5,41.5,29.49,WNW,298,6.0,7.0,89,0.00,,,3.08,0,Wunderground v.1.15,2013-01-31 04:00:00,
2013-01-30 23:10:00,44.2,40.9,29.52,NNW,340,7.0,11.0,88,0.00,,,3.08,0,Wunderground v.1.15,2013-01-31 04:10:00,
2013-01-30 23:15:00,43.9,40.6,29.54,WNW,303,7.0,11.0,88,0.00,,,3.08,0,Wunderground v.1.15,2013-01-31 04:15:00,
2013-01-30 23:20:00,43.7,40.4,29.51,North,360,8.0,10.0,88,0.00,,,3.08,0,Wunderground v.1.15,2013-01-31 04:20:00,
2013-01-30 23:30:00,43.3,40.0,29.51,NW,318,7.0,9.0,88,0.00,,,3.09,0,Wunderground v.1.15,2013-01-31 04:30:00,
2013-01-30 23:35:00,43.1,39.5,29.52,West,274,8.0,9.0,87,0.00,,,3.09,0,Wunderground v.1.15,2013-01-31 04:35:00,
2013-01-30 23:40:00,42.9,39.3,29.51,NW,309,8.0,8.0,87,0.00,,,3.09,0,Wunderground v.1.15,2013-01-31 04:40:00,
2013-01-30 23:45:00,42.9,39.0,29.52,North,350,6.0,12.0,86,0.00,,,3.09,0,Wunderground v.1.15,2013-01-31 04:45:00,
2013-01-30 23:55:00,42.7,39.1,29.51,West,269,4.0,5.0,87,0.00,,,3.09,0,Wunderground v.1.15,2013-01-31 04:55:00,